Location: Unspecified
(0.0000°N, 0.0000°E)
Time: 10:12:35
(UTC+00:00)

ARIANE 6 FM1 Upper Stage - Pass Details

Date: 16 April 2026
Orbit: 524 x 604 km, 62.0° (Epoch: 10 April)

Event Time Altitude Azimuth Distance (km) Brightness Sun altitude
Exits shadow 04:30:58 19° 178° (S) 1,338 4.5 -21.9°
Drops below altitude 10° 04:32:17 10° 170° (S) 1,829 5.3 -21.5°
Sets 04:34:35 0° 165° (SSE) 2,740 6.2 -21.0°
